Weather observations for the past three days for
Dumas, Moore County Airport
Imperial (Metric)
Date Time (cdt) Wind (mph) Vis. (mi.) Weather Sky Cond. Temperature (ºF) Relative Humidity Wind Chill (°F) Heat Index (°F) Pressure Precipitation (in)
Air Dwpt 6 hour altimeter (in) sea level (mb) 1 hr 3 hr 6 hr
Max. Min.
18 17:55 SE 18 G 25 10.00 Fair CLR 84.9 57.4 39% 84 30.18 0.0
18 17:35 SE 17 G 21 10.00 Fair CLR 85.5 58.8 41% 85 30.19 0.0
18 17:15 SE 13 G 23 10.00 Fair CLR 85.6 59.2 41% 85 30.2 0.0
18 16:55 SE 18 G 23 10.00 Fair CLR 85.3 59 41% 85 30.2 0.0
18 16:35 SE 16 G 24 10.00 Fair CLR 85.5 60.4 43% 85 30.2 0.0
18 16:15 SE 17 G 25 10.00 Fair CLR 85.3 60.4 43% 85 30.2 0.0
18 15:55 SE 18 G 24 10.00 Partly Cloudy SCT060 SCT070 86.5 61.5 43% 87 30.2 0.0
18 15:35 SE 14 G 18 10.00 Partly Cloudy SCT060 SCT070 84.2 60.4 45% 84 30.21 0.0
18 15:15 E 6 G 9 10.00 Partly Cloudy SCT065 84.6 58.1 41% 84 30.21 0.0
18 14:55 Calm 10.00 Partly Cloudy SCT065 84.2 57.2 40% 83 30.22 0.0
18 14:35 E 7 G 16 10.00 Fair CLR 86.5 56.5 36% 85 30.22 0.0
18 14:15 SE 9 10.00 Fair CLR 84.4 58.3 41% 84 30.24 0.0
18 13:55 E 5 10.00 Fair CLR 86 57.9 39% 85 30.24 0.0
18 13:35 SE 9 G 18 10.00 Fair CLR 85.3 59.4 42% 85 30.24 0.0
18 13:15 E 12 10.00 Fair CLR 84.4 61.5 46% 85 30.25 0.0
18 12:55 SE 13 10.00 Fair CLR 84.6 62.6 84.6 65.3 48% 85 30.25 0.0
18 12:35 E 13 G 18 10.00 Fair CLR 81.9 62.4 52% 83 30.26 0.0
18 12:15 E 12 10.00 Fair CLR 79.7 62.4 56% 81 30.26 0.0
18 11:55 E 9 10.00 Fair CLR 81.3 62.8 53% 83 30.26 0.0
18 11:35 E 8 10.00 Fair CLR 78.3 62.4 58% 80 30.27 0.0
18 11:15 E 7 10.00 Fair CLR 75.9 61.9 62% 78 30.26 0.0
18 10:55 E 12 G 16 10.00 Fair CLR 76.5 62.8 63% 78 30.26 0.0
18 10:35 E 10 10.00 Fair CLR 74.7 62.2 65% 30.26 0.0
18 10:15 NE 8 10.00 Fair CLR 74.7 62.6 66% 30.26 0.0
18 09:55 SW 10 10.00 Fair CLR 73.9 61.7 66% 30.25 0.0
18 09:35 SW 10 10.00 Fair CLR 72.1 61.9 70% 30.24 0.0
18 09:15 SW 10 10.00 Fair CLR 70.3 61.7 74% 30.25 0.0
18 08:55 SW 12 10.00 Fair CLR 69.1 61.2 76% 30.26 0.0
18 08:15 W 8 10.00 Fair CLR 67.1 61.5 82% 30.31 0.0
18 07:35 NW 13 G 18 10.00 Mostly Cloudy BKN036 BKN044 66.2 61.2 84% 30.31 0.0
18 07:15 NW 8 10.00 Fair CLR 65.3 62.2 90% 30.3 0.0
18 06:55 N 5 7.00 Fair CLR 65.3 62.6 70.3 65.3 91% 30.29 0.0
18 06:35 N 6 10.00 Fair CLR 65.5 62.8 91% 30.29 0.0
18 06:15 N 5 10.00 Mostly Cloudy BKN030 SCT037 BKN060 65.7 62.6 90% 30.29 0.0
18 05:55 N 6 10.00 Overcast OVC032 67.1 62.6 86% 30.3 0.0
18 05:35 Calm 10.00 Overcast SCT032 BKN048 OVC060 67.1 62.1 84% 30.29 0.0
18 05:15 Calm 10.00 Mostly Cloudy BKN046 67.3 61.7 82% 30.28 0.0
18 04:55 Calm 10.00 Fair CLR 66.2 61.2 84% 30.27 0.0
18 04:35 Calm 10.00 Fair CLR 67.1 62.1 84% 30.27 0.0
18 04:15 Calm 10.00 Fair CLR 67.3 61.9 83% 30.27 0.0
18 03:55 Calm 10.00 Fair CLR 67.3 62.1 83% 30.27 0.0
18 03:35 NE 5 10.00 Fair CLR 67.1 61.7 83% 30.27 0.0
18 03:15 Calm 10.00 Fair CLR 67.3 60.8 80% 30.26 0.0
18 02:55 Calm 10.00 Fair CLR 68.2 60.8 77% 30.26 0.0
18 02:35 Calm 10.00 Fair CLR 67.8 60.6 78% 30.26 0.0
18 02:15 Calm 10.00 Fair CLR 67.3 61.9 83% 30.26 0.0
18 01:55 SE 3 10.00 Fair CLR 67.8 61.7 81% 30.26 0.0
18 01:35 E 6 10.00 Fair CLR 68.9 61 76% 30.27 0.0
18 01:15 E 9 G 18 10.00 Partly Cloudy SCT044 SCT050 SCT075 70 60.8 73% 30.28 0.0
18 00:55 E 15 10.00 Mostly Cloudy SCT042 BKN050 BKN060 70.5 60.8 84.4 70.5 71% 30.28 0.0
18 00:35 NE 17 G 22 10.00 Partly Cloudy SCT048 SCT060 72.3 62.1 70% 30.29 0.0
18 00:15 E 8 10.00 Fair CLR 72.3 61.7 69% 30.28 0.0
17 23:55 E 8 10.00 Fair CLR 72.7 61.5 68% 30.27 0.0
17 23:35 E 8 10.00 Fair CLR 73 61.3 67% 30.27 0.0
17 23:15 E 7 10.00 Fair CLR 73.4 61.7 67% 30.27 0.0
17 22:55 E 8 10.00 Fair CLR 73.8 61.7 66% 30.26 0.0
17 22:35 E 7 10.00 Fair CLR 74.7 61.9 65% 30.26 0.0
17 22:15 E 8 10.00 Fair CLR 75.4 61.7 63% 77 30.26 0.0
17 21:55 E 9 10.00 Fair CLR 76.3 61.7 61% 78 30.25 0.0
17 21:35 E 9 10.00 Fair CLR 77.2 62.1 60% 79 30.24 0.0
17 21:15 E 10 10.00 Fair CLR 78.1 62.2 58% 80 30.22 0.0
17 20:55 E 9 10.00 Fair CLR 79 61.7 56% 80 30.22 0.0
17 20:35 E 10 10.00 Fair CLR 79.9 61.5 54% 81 30.22 0.0
17 20:15 NE 12 10.00 Fair CLR 80.8 62.1 53% 82 30.21 0.0
17 19:55 E 12 10.00 Fair CLR 82.6 59.9 46% 83 30.2 0.0
17 19:35 E 15 G 18 10.00 Fair CLR 83.3 60.6 46% 84 30.19 0.0
17 19:15 E 12 10.00 Partly Cloudy SCT050 SCT065 SCT075 83.5 61.7 48% 84 30.19 0.0
17 18:55 E 13 10.00 Partly Cloudy SCT050 SCT075 SCT090 84.7 61.5 86.4 82.9 46% 85 30.19 0.0
17 18:35 E 12 10.00 Partly Cloudy SCT055 SCT090 85.6 60.8 43% 86 30.19 0.0
17 17:55 E 12 G 24 10.00 Partly Cloudy SCT055 84.9 59.2 42% 85 30.18 0.0
17 17:35 NE 10 G 18 10.00 Partly Cloudy SCT055 85.5 59.2 41% 85 30.18 0.0
17 17:15 E 12 G 18 10.00 Fair CLR 85.5 59.9 42% 85 30.19 0.0
17 16:55 NE 10 G 20 10.00 Partly Cloudy SCT049 85.8 60.1 42% 86 30.2 0.0
17 16:35 E 10 G 20 10.00 Partly Cloudy SCT049 85.3 59.9 42% 85 30.2 0.0
17 16:15 NE 16 G 23 10.00 Partly Cloudy SCT049 85.8 61 43% 86 30.2 0.0
17 15:55 E 14 G 21 10.00 Partly Cloudy SCT049 85.6 61.3 44% 86 30.21 0.0
17 15:35 NE 10 G 21 10.00 Fair CLR 84.2 59.9 44% 84 30.21 0.0
17 15:15 E 17 G 28 10.00 Fair CLR 84.4 60.1 44% 84 30.22 0.0
17 14:55 E 16 G 23 10.00 Fair CLR 84 60.4 45% 84 30.22 0.0
17 14:35 E 20 10.00 Partly Cloudy SCT048 84.2 60.1 44% 84 30.22 0.0
17 14:15 E 14 G 20 10.00 Partly Cloudy SCT050 84.2 60.6 45% 84 30.23 0.0
17 13:55 NE 14 G 22 10.00 Fair CLR 83.8 59.9 44% 84 30.24 0.0
17 13:35 NE 14 G 24 10.00 Fair CLR 84 59.4 43% 84 30.24 0.0
17 13:15 NE 15 G 22 10.00 Fair CLR 83.1 59.2 44% 83 30.24 0.0
17 12:55 E 14 G 25 10.00 Fair CLR 82.9 60.1 83.3 63.5 46% 83 30.24 0.0
17 12:35 NE 13 G 22 10.00 Fair CLR 83.1 59.4 45% 83 30.24 0.0
17 12:15 NE 8 10.00 Fair CLR 81.7 58.6 46% 82 30.23 0.0
17 11:55 NE 10 G 17 10.00 Fair CLR 80.8 59.2 48% 81 30.23 0.0
17 11:35 NE 10 G 21 10.00 Fair CLR 80.2 58.1 47% 81 30.22 0.0
17 11:15 N 15 G 20 10.00 Fair CLR 79.9 58.8 49% 81 30.21 0.0
17 10:55 N 15 G 22 10.00 Fair CLR 78.3 59.5 53% 80 30.2 0.0
17 10:35 N 17 10.00 Fair CLR 77 60.1 56% 79 30.2 0.0
17 10:15 N 18 G 24 10.00 Fair CLR 76.5 59.2 55% 78 30.2 0.0
17 09:55 N 17 G 22 10.00 Fair CLR 75.7 60.6 60% 78 30.19 0.0
17 09:35 NW 15 10.00 Fair CLR 74.5 59.9 61% 30.18 0.0
17 09:15 N 16 10.00 Fair CLR 73 61.3 67% 30.19 0.0
17 08:55 NW 13 10.00 Fair CLR 71.8 61.2 69% 30.19 0.0
17 08:35 NW 10 10.00 Fair CLR 70 61.7 75% 30.18 0.0
17 08:15 NW 7 10.00 Fair CLR 67.1 61.9 83% 30.17 0.0
17 07:55 W 9 10.00 Fair CLR 65.5 61.5 87% 30.18 0.0
17 07:35 NW 6 10.00 Fair CLR 64.4 61 89% 30.17 0.0
17 07:15 NW 8 10.00 Fair CLR 63.7 60.1 88% 30.16 0.0
17 06:55 W 6 10.00 Fair CLR 63.5 60.8 68.2 63.5 91% 30.15 0.0
17 06:35 NW 5 10.00 Fair CLR 63.9 60.8 90% 30.16 0.0
17 06:15 NW 5 10.00 Fair CLR 64.2 61.3 90% 30.16 0.0
17 05:55 NW 8 10.00 Fair CLR 64.6 61.7 90% 30.15 0.0
17 05:35 NW 6 10.00 Fair CLR 65.3 61.9 89% 30.15 0.0
17 05:15 NW 6 10.00 Fair CLR 65.3 61.9 89% 30.16 0.0
17 04:55 W 8 10.00 Fair CLR 65.5 61.7 88% 30.18 0.0
17 04:35 W 7 10.00 Fair CLR 65.5 61.9 88% 30.19 0.0
17 04:15 NW 6 10.00 Fair CLR 65.8 62.6 89% 30.19 0.0
17 03:55 NW 5 10.00 Fair CLR 66.4 63 89% 30.19 0.0
17 03:35 NW 5 10.00 Fair CLR 66.6 63 88% 30.17 0.0
17 03:15 NW 3 10.00 Fair CLR 66.6 63.3 89% 30.16 0.0
17 02:55 N 3 10.00 Light Rain SCT009 66.4 63.5 91% 30.17 0.0
17 02:35 N 3 10.00 Light Drizzle CLR 66.9 63.3 88% 30.18 0.0
17 02:15 NW 5 10.00 Rain CLR 66.4 63.5 91% 30.19 0.0
17 01:55 N 3 10.00 Fair CLR 66.7 62.8 87% 30.18 0.0
17 01:35 NW 3 10.00 Partly Cloudy SCT110 66.7 62.2 86% 30.18 0.0
17 01:15 N 6 10.00 Partly Cloudy SCT110 68 61 78% 30.18 0.0
17 00:55 E 3 10.00 Fair CLR 68 60.1 96.8 65.8 76% 30.15 0.0 0.03
17 00:35 E 6 10.00 Fair CLR 67.3 60.6 79% 30.11 0.0
17 00:15 NE 10 10.00 Fair CLR 66.2 61.7 86% 30.12 0.0
16 23:55 NE 9 10.00 Light Drizzle CLR 65.8 61.7 87% 30.14 0.0 0.01
16 23:35 N 12 G 22 10.00 Light Rain SCT006 BKN012 BKN022 66.2 62.6 88% 30.15 0.0 0.01
16 23:15 NE 16 10.00 Light Rain BKN006 BKN012 OVC024 66.2 62.6 88% 30.12 0.0 0.01
16 22:55 NW 10 10.00 Light Rain SCT006 BKN010 BKN017 67.3 62.8 86% 30.19 0.0
16 22:35 NE 10 10.00 Light Rain CLR 67.6 62.2 83% 30.18 0.0
16 22:15 NW 18 G 22 10.00 Light Rain SCT008 SCT012 68.2 62.1 81% 30.11 0.0
16 21:50 NW 21 G 31 10.00 Rain and Breezy BKN006 BKN110 67.3 62.6 85% 30.09 0.0
16 21:35 NW 23 G 31 10.00 Light Rain and Breezy BKN006 BKN014 BKN110 68 62.4 82% 30.08 0.0
16 20:55 NW 33 G 51 3.00 Partly Cloudy with Haze and Windy SCT006 SCT011 SCT110 82.2 54.9 39% 82 30.05 0.0
16 20:35 S 5 10.00 Fair CLR 91.2 50.5 25% 88 29.97 0.0
16 20:15 SW 8 10.00 Fair CLR 92.3 50.9 24% 89 29.97 0.0
16 19:55 S 9 10.00 Fair CLR 92.5 51.8 25% 90 29.97 0.0
16 19:35 S 18 G 22 10.00 Partly Cloudy SCT120 93.6 51.4 24% 91 29.95 0.0
16 19:15 N 10 10.00 Fair CLR 95.4 52 23% 93 29.93 0.0
16 18:55 N 9 10.00 Fair CLR 97.2 51.3 101.1 91.8 21% 94 29.93 0.0
16 18:35 N 15 G 20 10.00 Fair CLR 97 52.2 22% 94 29.95 0.0
16 18:15 Calm 10.00 Fair CLR 99.3 45.3 16% 95 29.95 0.0
16 17:55 SW 3 10.00 Fair CLR 99.9 45.7 16% 96 29.95 0.0
16 17:35 SE 6 10.00 Fair CLR 99.3 46.2 16% 95 29.96 0.0
16 17:15 SW 3 10.00 Fair CLR 99.5 46.9 17% 96 29.97 0.0
16 16:55 NW 3 10.00 Fair CLR 98.8 49.6 19% 96 29.97 0.0
16 16:35 E 7 10.00 Fair CLR 99.3 51.3 20% 97 29.98 0.0
16 16:15 N 3 10.00 Fair CLR 97.9 50.7 20% 95 29.98 0.0
16 15:55 NW 6 10.00 Fair CLR 98.6 51.1 20% 96 30 0.0
16 15:35 E 7 10.00 Fair CLR 98.1 51.6 21% 95 30.01 0.0
16 15:15 SE 5 10.00 Fair CLR 96.8 51.3 21% 94 30.01 0.0
16 14:55 E 7 10.00 Fair CLR 96.1 52.5 23% 93 30.02 0.0
16 14:35 E 3 10.00 Fair CLR 94.6 52.2 24% 92 30.02 0.0
16 14:15 Calm 10.00 Fair CLR 94.3 53.1 25% 92 30.03 0.0
16 13:55 E 5 10.00 Fair CLR 92.3 52.5 26% 90 30.04 0.0
16 13:35 SE 8 10.00 Fair CLR 93.4 53.2 26% 91 30.04 0.0
16 13:15 Calm 10.00 Fair CLR 92.8 53.1 26% 90 30.05 0.0
16 12:55 SE 6 10.00 Fair CLR 91.2 54.7 91.4 71.2 29% 89 30.06 0.0
16 12:35 NE 6 10.00 Fair CLR 89.4 54.3 30% 87 30.06 0.0
16 12:15 SE 5 10.00 Fair CLR 88.3 54.1 31% 86 30.06 0.0
16 11:55 Calm 10.00 Fair CLR 86.9 54.5 33% 85 30.07 0.0
16 11:35 Calm 10.00 Fair CLR 84.9 54.9 36% 84 30.07 0.0
16 11:15 Calm 10.00 Fair CLR 84.4 54.7 36% 83 30.07 0.0
16 10:55 Calm 10.00 Fair CLR 81.3 54.5 40% 81 30.07 0.0
16 10:35 Calm 10.00 Fair CLR 81 54.5 40% 81 30.06 0.0
16 10:15 N 3 10.00 Fair CLR 80.1 55.2 43% 80 30.06 0.0
16 09:55 N 6 10.00 Fair CLR 80.4 54.7 41% 80 30.06 0.0
16 09:35 N 3 10.00 Fair CLR 79.2 55 43% 80 30.07 0.0
16 09:15 NW 5 10.00 Fair CLR 77 55.8 48% 79 30.07 0.0
16 08:55 N 3 10.00 Fair CLR 76.8 55.6 48% 78 30.06 0.0
16 08:35 NW 5 10.00 Fair CLR 75.4 55.4 50% 78 30.07 0.0
16 08:15 NW 3 10.00 Fair CLR 73.8 55.6 53% 30.06 0.0
16 07:55 N 3 10.00 Fair CLR 72.7 55.8 55% 30.06 0.0
16 07:35 Calm 10.00 Fair CLR 71.2 55 57% 30.05 0.0
16 07:15 Calm 10.00 Fair CLR 72 54.7 55% 30.04 0.0
16 06:55 NW 6 10.00 Fair CLR 72 54.7 79.3 70.5 55% 30.04 0.0
16 06:35 N 3 10.00 Fair CLR 72.3 54.9 54% 30.03 0.0
16 06:15 N 5 10.00 Fair CLR 72.3 54.5 54% 30.04 0.0
16 05:55 N 5 10.00 Fair CLR 71.6 54.5 55% 30.04 0.0
16 05:35 NW 12 10.00 Fair CLR 72.3 54 53% 30.04 0.0
16 05:15 SE 5 10.00 Fair CLR 70.7 55.2 58% 30.02 0.0
16 04:55 S 5 10.00 Fair CLR 71.6 54 54% 30.01 0.0
16 04:30 E 3 10.00 Fair CLR 72.3 54.5 54% 30.01 0.0
16 04:15 Calm 10.00 Fair CLR 74.3 53.6 49% 30 0.0
16 03:55 Calm 10.00 Fair CLR 73.6 53.6 50% 30.01 0.0
16 03:35 Calm 10.00 Fair CLR 74.3 54 49% 30.02 0.0
16 03:15 NW 5 10.00 Fair CLR 73.9 53.4 49% 30.03 0.0
16 02:55 W 5 10.00 Fair CLR 75.9 53.8 46% 78 30.03 0.0
16 02:35 W 7 10.00 Fair CLR 74.3 54.1 50% 30.04 0.0
16 02:10 NW 5 10.00 Fair CLR 75.4 54 47% 78 30.03 0.0
16 01:55 NW 5 10.00 Fair CLR 76.3 54.1 46% 78 30.04 0.0
16 01:35 NW 6 10.00 Fair CLR 76.3 53.4 45% 78 30.04 0.0
16 01:15 NW 6 10.00 Fair CLR 78.4 53.1 41% 79 30.03 0.0
16 00:55 NW 6 10.00 Fair CLR 79.3 52.7 100.4 79 40% 79 30.03 0.0
16 00:35 NW 6 10.00 Fair CLR 80.2 52 38% 80 30.03 0.0
16 00:15 NW 10 10.00 Fair CLR 82.9 51.3 33% 82 30.03 0.0
15 23:55 NW 10 G 20 10.00 Fair CLR 85.1 50.7 31% 83 30.02 0.0
15 23:35 NW 15 G 30 10.00 Fair CLR 90.1 48.2 24% 87 30.01 0.0
15 23:15 NW 10 10.00 Fair CLR 88.2 48.2 25% 85 30.01 0.0
15 22:55 S 13 10.00 Fair CLR 87.8 48.2 25% 85 29.98 0.0
15 22:35 S 10 10.00 Fair CLR 86.9 47.8 26% 84 29.97 0.0
15 22:15 S 10 10.00 Fair CLR 87.1 46.9 25% 84 29.97 0.0
15 21:55 S 9 10.00 Fair CLR 88 46.4 24% 85 29.96 0.0
15 21:35 S 10 10.00 Fair CLR 88.9 45 22% 85 29.95 0.0
15 21:15 S 14 10.00 Fair CLR 90.9 44.6 20% 87 29.93 0.0
15 20:55 S 14 10.00 Fair CLR 92.3 44.2 19% 88 29.92 0.0
15 20:35 S 13 10.00 Fair CLR 93.7 44.6 18% 90 29.91 0.0
15 20:15 S 12 10.00 Fair CLR 95.7 44.8 17% 92 29.91 0.0
15 19:55 S 14 10.00 Fair CLR 96.6 45 17% 93 29.91 0.0
15 19:35 S 16 G 24 10.00 Fair CLR 98.6 44.2 16% 94 29.91 0.0
15 19:15 S 15 10.00 Fair CLR 99 43.9 15% 95 29.91 0.0
15 18:55 S 15 G 23 10.00 Fair CLR 100.6 42.1 105.3 99.9 13% 96 29.91 0.0
15 18:35 S 10 G 16 10.00 Fair CLR 101.7 41.5 13% 97 29.92 0.0
15 18:15 SW 17 G 33 10.00 Fair CLR 104.5 39.6 11% 99 29.91 0.0
Date Time (cdt) Wind (mph) Vis. (mi.) Weather Sky Cond. Air Dwpt Max. Min. Relative Humidity Wind Chill (°F) Heat Index (°F) altimeter (in) sea level (mb) 1 hr 3 hr 6 hr
6 hour
Temperature (ºF) Pressure Precipitation (in)